Location: Unspecified
(0.0000°N, 0.0000°E)
Time: 19:34:54
(UTC+00:00)

ISS - Pass Details

Date: 18 October 2021
Orbit: 417 x 423 km, 51.6° (Epoch: 24 October)

Event Time Altitude Azimuth Distance (km) Brightness Sun altitude
Exits shadow 04:47:09 23° 245° (WSW) 953 -2.4 -14.3°
Maximum altitude 04:48:53 43° 305° (NW) 595 -3.4 -13.9°
Drops below altitude 10° 04:52:05 10° 19° (NNE) 1,489 -0.9 -13.1°
Sets 04:54:14 0° 26° (NNE) 2,348 0.3 -12.6°
